Wind_Speed
27 26 26 26 25 24 24 24 24 22 21 19 18 17 15 15 14 13 12 10 9 11 11 12 13 14 14 13 13 13 13 14 14 14 15 15 15 14 14 15 15 15 15 14
28 27 27 27 27 26 25 24 24 23 22 20 18 17 16 15 13 13 13 11 10 10 11 12 14 14 14 14 14 13 14 14 15 15 15 15 14 14 14 14 16 15 14 14
29 28 28 28 26 26 25 24 23 21 21 21 19 17 16 13 12 11 12 11 11 10 10 12 12 14 15 14 14 14 14 14 14 15 15 15 15 14 14 14 14 14 15 14
29 28 29 26 26 25 24 23 23 22 20 19 18 17 15 14 13 12 12 11 11 10 10 11 13 13 14 14 14 14 14 14 15 14 15 15 15 15 15 15 15 15 15 15
30 29 29 27 27 27 26 25 24 23 20 18 17 17 15 14 13 13 12 13 13 12 12 13 14 15 15 15 15 14 15 15 15 15 14 15 15 16 16 16 16 16 16 16
30 30 28 26 26 27 26 26 24 22 21 20 19 18 16 15 14 13 13 14 14 14 14 15 15 15 16 16 16 16 16 16 16 16 15 15 16 15 14 15 16 16 16 16
30 29 28 26 26 26 25 25 23 20 20 19 18 18 18 16 15 14 14 15 15 15 15 16 16 17 17 17 17 17 17 17 17 17 17 16 16 15 16 16 16 16 17 17
31 30 29 27 27 26 24 22 21 21 21 20 19 19 19 17 16 15 15 15 15 15 16 16 17 18 18 18 19 19 19 19 19 19 18 18 17 17 17 17 18 18 18 19
29 28 27 26 25 26 25 23 22 21 20 20 19 20 18 17 16 16 16 16 16 16 17 17 18 19 19 19 19 19 19 20 21 21 21 21 20 19 19 19 19 19 20 20
27 26 26 25 25 24 23 23 22 21 21 20 20 19 19 18 18 17 17 17 18 18 19 19 20 20 21 20 20 19 20 21 22 23 23 23 23 22 22 22 22 22 21 22
25 25 24 24 24 24 23 22 22 22 22 22 21 20 19 19 19 19 19 19 18 18 19 20 21 21 21 21 21 21 21 22 23 24 24 24 24 24 25 25 24 24 24 24
24 24 25 24 23 23 23 23 23 22 22 22 22 21 20 19 19 20 20 20 19 20 20 21 21 21 22 22 23 23 23 23 24 24 25 26 26 26 26 27 26 26 26 25
24 24 23 23 23 22 22 22 22 21 21 21 21 21 20 20 19 20 20 20 20 20 21 22 22 22 23 23 23 23 24 24 24 25 26 26 27 27 27 28 28 28 28 27
23 22 21 20 21 21 21 20 20 21 21 20 20 20 20 20 20 20 20 20 20 20 21 22 22 23 23 24 24 24 25 25 25 25 26 27 27 28 29 29 29 29 29 28
21 21 21 20 20 20 20 19 19 20 20 20 20 20 20 20 19 19 20 20 20 20 20 20 21 22 23 23 23 23 23 24 25 25 26 27 28 28 29 30 30 30 30 30
20 20 20 19 19 19 19 18 18 19 19 19 19 19 19 18 18 19 19 19 20 20 20 20 20 21 21 21 21 22 22 22 23 24 25 26 27 28 29 30 30 30 30 31
18 19 18 18 18 17 17 17 16 16 16 17 17 17 17 17 18 18 19 19 20 20 20 21 21 21 21 22 23 23 23 23 24 24 25 26 27 28 29 30 31 31 31 32
16 17 16 15 16 16 15 15 15 15 15 15 16 17 17 17 17 17 18 18 19 20 20 20 21 21 22 23 23 23 24 25 25 26 26 27 28 28 30 31 32 32 33 33
17 16 15 15 14 15 15 15 15 15 14 14 14 16 15 16 17 17 16 17 17 17 19 20 20 21 21 22 22 22 24 25 25 26 26 27 28 30 31 32 33 33 34 35
16 16 15 14 14 13 13 12 13 13 13 13 14 14 15 16 16 16 17 17 17 17 18 19 19 20 20 21 21 22 23 24 25 27 28 29 30 31 32 32 33 34 35 35
16 16 16 14 13 13 12 11 11 11 11 12 13 13 13 14 15 16 16 16 16 17 17 17 18 19 20 20 21 22 23 25 26 26 27 28 29 30 31 31 32 34 35 35
15 15 15 14 13 13 13 12 12 11 11 11 12 12 11 11 12 13 14 15 15 16 18 19 19 19 20 21 22 23 24 26 26 27 27 28 28 29 30 31 33 33 34 35
15 14 13 13 13 12 12 12 11 11 10 10 10 11 11 11 11 12 13 15 16 16 17 18 20 21 22 23 23 24 25 25 26 27 28 28 28 29 31 33 34 34 35 37
13 13 13 12 12 11 11 11 11 11 10 10 10 10 10 11 12 13 14 15 16 17 18 19 20 21 22 23 24 24 25 26 26 27 28 29 31 32 33 34 36 37 38 40
13 13 12 11 10 10 9 9 10 10 11 11 11 11 11 12 13 14 15 16 18 18 18 19 20 21 21 22 24 25 25 26 27 28 30 31 32 33 35 36 37 39 40 41
13 13 12 11 10 10 9 10 10 10 10 10 10 11 12 13 14 15 15 16 17 18 19 20 21 21 22 23 23 24 26 27 29 30 31 33 34 35 36 38 38 39 40 41
11 11 10 10 9 9 9 9 10 10 10 11 12 12 13 13 14 15 16 17 18 19 20 20 21 22 23 24 25 25 27 28 29 30 31 33 34 35 36 37 37 38 39 40
Wind_Direction
228 226 228 230 235 239 244 249 251 255 259 262 266 267 262 258 259 254 240 238 233 228 225 225 218 211 210 213 211 212 212 209 209 211 212 212 212 213 216 220 224 223 225 229
228 229 233 234 235 239 245 249 253 255 257 259 261 262 263 262 254 249 239 233 225 223 221 219 210 212 213 214 216 216 214 213 214 214 212 213 215 219 223 225 223 223 226 229
229 232 235 237 239 242 246 250 253 254 256 257 259 262 263 259 246 244 237 229 216 215 213 211 211 212 214 213 214 211 212 214 215 214 215 216 219 224 227 228 226 225 228 231
231 232 235 238 239 240 245 248 252 255 254 256 261 264 263 259 246 242 235 230 219 220 217 213 209 209 211 210 209 210 213 216 217 219 221 221 224 227 228 229 230 231 234 237
230 232 237 239 240 241 246 249 253 254 254 255 262 263 257 255 250 241 235 234 234 232 224 213 211 213 212 212 215 218 220 221 222 223 226 225 226 229 232 233 234 235 237 239
233 233 236 238 241 242 243 246 249 250 250 251 256 258 253 251 250 239 231 232 233 231 223 219 220 220 219 218 218 220 223 225 225 225 226 228 231 233 235 235 236 238 241 244
233 235 236 236 241 244 245 245 249 251 250 250 251 252 253 252 248 240 235 231 233 232 228 224 224 224 223 221 222 223 226 227 227 228 230 233 236 238 238 237 239 242 246 250
232 232 235 237 239 239 243 245 247 249 250 249 253 255 256 251 246 241 239 235 237 237 232 226 225 226 224 224 226 228 229 230 231 234 236 238 240 242 242 243 244 246 249 253
227 230 233 235 236 236 239 241 242 245 249 251 254 254 248 243 245 245 240 240 240 240 235 228 225 227 227 228 230 231 233 234 235 236 239 242 243 244 246 247 247 248 250 252
229 230 234 232 231 235 237 240 243 245 248 250 252 251 244 241 245 245 241 242 241 237 233 232 230 230 230 231 234 237 238 239 239 240 243 244 245 247 248 250 251 252 252 255
232 232 230 231 233 235 239 239 242 243 245 248 250 248 245 243 241 244 244 243 239 236 233 232 231 230 232 234 237 240 241 243 242 243 245 246 248 250 250 251 253 254 256 256
230 230 232 234 236 240 242 239 239 240 243 245 247 245 243 242 243 243 241 240 240 239 237 235 233 234 235 237 239 242 245 245 246 246 247 248 249 250 250 252 253 255 256 256
230 232 234 236 235 237 239 238 237 239 242 243 243 242 241 242 241 243 241 237 239 239 238 237 237 238 238 239 242 245 247 248 247 246 248 249 250 251 252 253 254 255 258 261
227 230 233 235 235 238 237 236 239 241 241 243 242 243 244 243 243 243 242 240 241 240 238 237 239 240 241 242 245 247 248 249 249 249 250 251 252 254 255 257 257 258 262 263
230 232 234 236 239 240 238 238 240 241 241 242 243 243 244 242 241 240 239 238 237 239 238 237 237 239 242 244 246 248 250 252 253 254 254 253 254 255 257 258 260 261 262 265
235 236 235 237 237 238 240 238 239 243 244 242 241 242 242 239 236 236 238 238 235 237 239 240 241 243 244 246 247 248 250 254 255 255 258 258 257 257 258 261 262 262 264 266
232 232 233 233 231 233 235 236 237 237 237 236 239 239 238 234 232 234 236 237 236 237 241 244 245 246 247 247 248 250 253 255 259 261 262 264 263 263 264 264 264 265 265 266
226 225 226 225 225 226 226 229 232 235 235 238 238 236 234 233 232 232 235 237 239 241 245 248 248 249 249 251 254 255 257 260 262 265 266 267 266 265 267 268 268 268 268 271
218 217 219 221 223 224 225 226 229 232 235 234 235 234 234 235 234 231 236 240 242 245 246 246 249 251 252 254 256 258 261 264 265 267 268 269 269 269 270 271 271 271 272 273
209 210 213 215 216 215 218 223 225 227 228 231 234 234 234 236 236 235 237 240 243 247 247 248 250 252 254 257 259 261 264 269 272 271 271 271 270 269 269 271 273 274 276 277
200 202 203 204 203 206 211 215 217 219 220 224 230 232 235 237 238 237 237 240 242 245 248 251 252 254 257 260 263 267 269 272 274 275 273 272 272 272 273 275 277 279 280 280
196 197 197 200 202 207 213 216 218 219 221 226 229 233 239 241 241 240 242 245 248 251 252 256 258 260 261 264 267 271 273 273 274 275 276 277 278 278 279 279 281 281 282 283
197 196 198 202 206 212 215 219 223 225 229 235 240 244 247 251 253 253 254 255 255 257 260 263 266 266 269 273 275 277 277 278 278 278 279 280 281 281 281 281 281 282 284 285
188 191 196 204 212 217 219 221 222 227 232 239 246 250 253 256 260 263 263 266 266 267 270 273 274 274 276 278 279 281 280 280 281 281 282 283 283 282 283 284 284 285 286 287
189 192 197 203 208 213 219 222 223 228 234 244 249 251 257 262 266 268 267 267 269 274 277 278 278 277 278 280 281 282 281 282 284 285 285 285 284 284 285 285 286 287 288 289
188 190 196 202 207 215 223 228 234 240 247 251 257 262 266 270 271 270 272 273 275 277 278 279 280 281 282 284 285 285 285 286 287 288 288 289 289 288 288 288 288 289 290 291
184 189 195 203 212 219 227 237 247 253 259 264 267 269 273 276 276 277 277 277 278 279 280 281 282 284 287 288 289 290 291 291 291 292 293 293 293 292 291 290 290 290 291 292
Height
5773 5777 5779 5781 5784 5786 5788 5789 5790 5791 5793 5795 5795 5795 5796 5796 5797 5798 5799 5800 5800 5802 5804 5806 5808 5811 5813 5815 5817 5819 5821 5823 5825 5827 5829 5831 5833 5835 5836 5838 5839 5841 5842 5843
5768 5771 5774 5776 5779 5781 5783 5784 5785 5787 5789 5791 5791 5791 5791 5792 5793 5795 5796 5797 5798 5800 5802 5803 5806 5809 5811 5813 5815 5817 5819 5821 5823 5824 5826 5828 5830 5832 5833 5835 5836 5837 5839 5840
5762 5766 5769 5772 5774 5776 5778 5779 5781 5782 5785 5786 5787 5787 5788 5789 5790 5792 5793 5794 5796 5798 5800 5801 5803 5806 5808 5810 5812 5814 5817 5819 5821 5822 5824 5825 5827 5829 5830 5831 5833 5834 5835 5836
5757 5761 5764 5769 5769 5771 5772 5774 5776 5777 5779 5780 5782 5783 5784 5785 5788 5790 5791 5792 5793 5795 5797 5799 5801 5803 5806 5808 5810 5812 5814 5816 5818 5820 5821 5823 5824 5826 5827 5828 5829 5830 5832 5833
5751 5754 5757 5761 5763 5765 5767 5769 5770 5773 5775 5776 5777 5778 5779 5781 5784 5786 5788 5789 5791 5792 5794 5797 5799 5801 5803 5805 5807 5809 5811 5813 5815 5817 5818 5820 5821 5822 5823 5824 5826 5827 5828 5829
5746 5748 5751 5756 5758 5759 5762 5763 5766 5768 5770 5771 5772 5773 5775 5776 5779 5781 5783 5785 5787 5788 5790 5793 5796 5797 5800 5801 5803 5806 5808 5810 5812 5813 5815 5816 5817 5819 5820 5821 5822 5823 5824 5825
5739 5742 5745 5750 5752 5754 5758 5760 5761 5762 5764 5765 5766 5768 5770 5771 5773 5776 5777 5780 5782 5784 5786 5789 5792 5794 5796 5798 5800 5802 5804 5806 5808 5810 5811 5813 5814 5815 5816 5817 5818 5819 5820 5821
5733 5737 5742 5744 5746 5749 5752 5754 5756 5757 5759 5760 5762 5763 5765 5767 5769 5771 5772 5775 5778 5780 5782 5784 5787 5789 5792 5795 5797 5798 5800 5802 5804 5805 5807 5808 5810 5811 5812 5813 5814 5815 5815 5816
5728 5732 5736 5738 5740 5742 5745 5748 5750 5752 5754 5755 5757 5759 5761 5763 5764 5766 5768 5770 5773 5775 5777 5780 5783 5785 5787 5790 5792 5794 5796 5797 5799 5800 5802 5803 5805 5806 5807 5808 5809 5809 5810 5810
5722 5725 5729 5732 5734 5736 5739 5742 5744 5747 5749 5750 5752 5754 5756 5758 5760 5761 5763 5765 5767 5770 5772 5775 5777 5780 5782 5784 5786 5789 5790 5792 5794 5795 5796 5798 5799 5800 5801 5802 5803 5803 5803 5804
5716 5720 5723 5726 5728 5731 5734 5736 5738 5741 5744 5745 5747 5749 5751 5753 5755 5756 5758 5760 5762 5764 5767 5769 5772 5774 5777 5779 5781 5783 5785 5786 5788 5789 5790 5792 5793 5794 5795 5796 5796 5797 5797 5797
5711 5714 5718 5720 5723 5726 5728 5730 5733 5735 5737 5739 5741 5743 5745 5747 5749 5751 5752 5754 5756 5759 5761 5764 5766 5769 5771 5773 5775 5777 5778 5779 5781 5782 5783 5785 5786 5787 5787 5788 5789 5789 5789 5790
5706 5709 5712 5715 5717 5720 5722 5724 5727 5730 5731 5733 5735 5737 5739 5742 5744 5745 5746 5749 5751 5753 5755 5758 5760 5763 5765 5767 5768 5770 5771 5772 5773 5775 5776 5777 5778 5779 5780 5781 5781 5782 5782 5782
5700 5704 5707 5710 5712 5715 5716 5719 5721 5724 5726 5728 5730 5732 5733 5736 5738 5739 5741 5743 5745 5747 5749 5752 5754 5756 5758 5760 5762 5763 5764 5765 5766 5767 5768 5769 5770 5771 5772 5772 5773 5774 5774 5774
5695 5699 5702 5704 5707 5709 5711 5713 5716 5718 5720 5722 5724 5726 5728 5730 5732 5734 5736 5737 5740 5742 5744 5746 5748 5750 5752 5753 5755 5756 5757 5758 5759 5760 5761 5762 5762 5763 5764 5764 5765 5765 5765 5765
5690 5693 5696 5699 5702 5704 5706 5709 5711 5713 5715 5716 5719 5721 5722 5724 5726 5729 5731 5733 5735 5737 5739 5741 5743 5744 5746 5747 5749 5750 5751 5752 5752 5753 5754 5754 5754 5755 5755 5755 5755 5755 5755 5755
5686 5688 5691 5694 5697 5700 5702 5704 5706 5708 5710 5712 5714 5716 5717 5719 5722 5724 5726 5728 5729 5731 5734 5735 5737 5739 5740 5741 5743 5744 5745 5745 5746 5746 5747 5746 5746 5746 5746 5746 5746 5745 5745 5745
5681 5684 5687 5690 5693 5695 5698 5700 5702 5704 5706 5708 5709 5711 5713 5715 5717 5719 5721 5723 5724 5726 5728 5729 5731 5733 5734 5735 5736 5737 5738 5739 5739 5739 5739 5738 5738 5738 5737 5737 5736 5735 5734 5734
5677 5680 5683 5686 5689 5691 5694 5696 5698 5700 5702 5704 5706 5707 5710 5711 5713 5714 5716 5718 5719 5721 5723 5724 5725 5726 5727 5728 5729 5730 5730 5731 5731 5731 5730 5730 5729 5729 5728 5727 5726 5725 5724 5723
5674 5677 5680 5683 5686 5688 5690 5692 5694 5697 5699 5701 5702 5704 5706 5708 5709 5710 5712 5713 5715 5716 5717 5719 5720 5721 5721 5722 5722 5723 5723 5722 5722 5721 5721 5721 5720 5719 5718 5717 5716 5714 5712 5711
5671 5674 5677 5680 5683 5686 5688 5690 5692 5694 5696 5698 5699 5701 5702 5704 5705 5706 5707 5709 5710 5711 5713 5714 5714 5715 5715 5716 5715 5715 5715 5714 5714 5713 5712 5711 5710 5709 5708 5707 5705 5703 5701 5699
5670 5673 5676 5679 5681 5683 5686 5688 5690 5692 5693 5695 5696 5697 5699 5700 5701 5702 5703 5705 5705 5706 5707 5708 5708 5709 5709 5709 5708 5708 5707 5706 5705 5704 5703 5702 5701 5699 5698 5696 5695 5693 5690 5688
5669 5672 5674 5677 5680 5682 5683 5685 5687 5689 5691 5692 5693 5694 5695 5696 5697 5698 5699 5700 5700 5701 5702 5702 5702 5702 5702 5702 5701 5700 5699 5698 5697 5695 5694 5693 5691 5689 5688 5686 5684 5681 5679 5676
5667 5670 5673 5676 5678 5680 5682 5683 5685 5687 5688 5689 5690 5691 5692 5693 5694 5695 5695 5696 5696 5696 5696 5696 5696 5695 5695 5694 5693 5692 5691 5689 5688 5686 5684 5683 5681 5679 5677 5674 5672 5670 5667 5664
5667 5669 5672 5674 5676 5678 5680 5682 5683 5685 5686 5687 5687 5688 5689 5689 5690 5690 5690 5691 5691 5691 5690 5690 5689 5689 5688 5687 5685 5684 5682 5681 5679 5677 5675 5672 5670 5668 5665 5663 5660 5657 5654 5651
5666 5668 5670 5673 5675 5677 5678 5680 5681 5682 5683 5684 5684 5685 5685 5686 5686 5685 5685 5685 5685 5685 5684 5684 5683 5682 5681 5679 5678 5676 5674 5672 5669 5667 5664 5661 5658 5655 5653 5650 5647 5644 5641 5637
5665 5667 5669 5671 5673 5675 5676 5677 5678 5679 5680 5680 5680 5681 5681 5681 5681 5681 5680 5680 5680 5679 5678 5677 5676 5675 5673 5671 5670 5667 5665 5663 5660 5657 5654 5650 5647 5644 5641 5638 5635 5632 5628 5625